Home   Weather   Tananger   Past weeks

Flag for Norway Past Weather in Tananger, Norway — Yesterday and Last 2 Weeks

Now
61 °F

Partly cloudy.


Feels Like: 61 °F
Forecast: 53 / 56 °F
Wind: 20 mph from Southwest

Location: Stavanger / Sola

Current Time: Sep 29, 2016 at 7:07:34 AM

Latest Report: Sep 29, 2016 at 6:20 AM


Visibility: N/A

Pressure: 29.36 "Hg

Humidity: 88%

Dew Point: 57 °F

Location of TanangerLocation

Past Weather in Tananger — Graph

°F

Tananger Temperature Yesterday

Maximum temperature yesterday: 59 °F (at 12:50 AM)
Minimum temperature yesterday: 54 °F (at 9:20 PM)
Average temperature yesterday: 57 °F

High & Low Weather Summary for the Past Weeks

 TemperatureHumidityPressure
High79 °F (Sep 15, 12:20 PM)100% (Sep 20, 2:50 AM)30.24 "Hg (Sep 20, 2:50 AM)
Low52 °F (Sep 23, 9:50 PM)44% (Sep 25, 4:20 PM)29.36 "Hg (Sep 29, 5:50 AM)
Average62 °F77%30.04 "Hg
* Reported Sep 14 5:50 AM — Sep 29 5:50 AM, Tananger, Weather by CustomWeather, © 2016

Note: Actual official high and low records may vary slightly from our data, if they occured in-between our weather recording intervals... More about our weather records

Advertising

Tananger Weather History for the Previous 24 Hours

Scroll right to see more
 ConditionsComfort  
Time TempWeatherWind HumidityBarometerVisibility
5:50 AM
Thu, Sep 29
61 °FPassing clouds.20 mph94%29.36 "Hg6 mi
4:50 AM63 °FPassing clouds.20 mph88%29.39 "Hg6 mi
3:50 AM63 °FPassing clouds.17 mph88%29.45 "Hg6 mi
2:50 AM63 °FPartly cloudy.16 mph88%29.47 "Hg5 mi
1:50 AM57 °FLight rain. Passing clouds.22 mph94%29.47 "Hg4 mi
12:50 AM54 °FLight rain. Partly cloudy.15 mph94%29.53 "Hg4 mi
11:50 PM
Wed, Sep 28
54 °FPartly cloudy.10 mph94%29.65 "Hg5 mi
11:20 PM54 °FPartly cloudy.9 mph94%29.68 "Hg6 mi
10:50 PM54 °FPartly cloudy.10 mph94%29.71 "Hg6 mi
10:20 PM54 °FLight rain. Partly cloudy.7 mph94%29.71 "Hg6 mi
9:50 PM54 °FLight rain. Partly cloudy.7 mph94%29.74 "HgN/A
9:20 PM54 °FPartly cloudy.5 mph94%29.74 "HgN/A
8:50 PM55 °FLight rain. Partly cloudy.5 mph77%29.74 "HgN/A
8:20 PM55 °FLight rain. Partly cloudy.7 mph77%29.77 "HgN/A
7:50 PM57 °FLight rain. Partly cloudy.8 mph77%29.77 "HgN/A
7:20 PM55 °FPartly cloudy.7 mph77%29.77 "HgN/A
6:50 PM57 °FPartly sunny.12 mph77%29.80 "HgN/A
6:20 PM57 °FPartly sunny.9 mph72%29.80 "HgN/A
5:50 PM57 °FBroken clouds.13 mph77%29.77 "HgN/A
5:20 PM57 °FPartly sunny.14 mph77%29.77 "HgN/A
4:50 PM59 °FPartly sunny.14 mph72%29.77 "HgN/A
4:20 PM57 °FBroken clouds.14 mph77%29.77 "HgN/A
3:50 PM57 °FScattered showers. Broken clouds.16 mph77%29.77 "HgN/A
3:20 PM57 °FBroken clouds.17 mph77%29.77 "HgN/A
2:50 PM59 °FBroken clouds.17 mph72%29.77 "HgN/A
1:50 PM57 °FScattered showers. Broken clouds.20 mph77%29.74 "HgN/A
1:20 PM59 °FPartly sunny.20 mph77%29.74 "HgN/A
12:50 PM59 °FPartly sunny.18 mph82%29.71 "HgN/A
12:20 PM59 °FPartly sunny.17 mph77%29.71 "HgN/A
10:50 AM57 °FScattered showers. Broken clouds.17 mph82%29.68 "HgN/A
10:20 AM59 °FRain showers. Broken clouds.22 mph77%29.68 "Hg4 mi
9:50 AM57 °FScattered showers. Broken clouds.22 mph82%29.68 "HgN/A
9:20 AM59 °FScattered showers. Broken clouds.18 mph77%29.65 "HgN/A
8:50 AM55 °FSprinkles. Broken clouds.22 mph82%29.65 "Hg6 mi
8:20 AM57 °FScattered clouds.20 mph77%29.65 "HgN/A
7:50 AM59 °FPartly sunny.22 mph72%29.65 "HgN/A
7:20 AM57 °FScattered showers. Passing clouds.20 mph77%29.65 "HgN/A
Weather by CustomWeather, © 2016

See weather overviewHow to use our weather pages